Location: Brad
(46.1333°N, 22.7833°E)
Time: 04:37:13
(UTC+00:00)

Cosmos 44 Rocket - Pass Details

Date: 03 February 2023
Orbit: 646 x 742 km, 65.1° (Epoch: 29 March)

Event Time Altitude Azimuth Distance (km) Brightness Sun altitude
Rises 18:04:15 0° 216° (SW) 2,952 7.0 -25.8°
Reaches altitude 10° 18:06:31 10° 217° (SW) 2,051 6.1 -26.2°
Enters shadow 18:10:25 63° 230° (SW) 739 3.5 -26.9°
